Ann Arbor, MI

2:59 PM EDT on July 27, 2017 (GMT -0400)
Ann Arbor Municipal

Weather History for KARB - August, 2014

Change the Weather History Date:

Sunday, August 10, 2014

  Actual Average Record
Temperature  
Mean Temperature 72 °F -  
Max Temperature 86 °F 78 °F 93 °F (2016)
Min Temperature 60 °F 55 °F 46 °F (2002)
Cooling Degree Days 7    
Growing Degree Days 22 (Base 50)    
Moisture  
Dew Point 59 °F    
Average Humidity 68    
Maximum Humidity 86    
Minimum Humidity 38    
Precipitation  
Precipitation 0.00 in - - ()
Sea Level Pressure  
Sea Level Pressure 30.06 in    
Wind  
Wind Speed 5 mph (East)    
Max Wind Speed 8 mph    
Max Gust Speed -    
Visibility 10 miles    
Events      
Averages and records for this station are not official NWS values.
T = Trace of Precipitation, MM = Missing Value Source: NWS Daily Summary

Daily Weather History Graph

Daily Weather History Graph

Search for Another Location

Airport or City:

Trip Planner

Search our weather history database for the weather conditions in past years. The results will help you decide how hot, cold, wet, or windy it might be!

Date:

Astronomy

Aug. 10, 2014 Rise Set
Actual Time 6:37 AM EDT 8:42 PM EDT
Civil Twilight 6:06 AM EDT 9:13 PM EDT
Nautical Twilight 5:28 AM EDT 9:50 PM EDT
Astronomical Twilight 4:47 AM EDT 10:32 PM EDT
Moon 8:27 PM EDT (8/10) 6:29 AM EDT (8/10)
Length of Visible Light 15h 06m
Length of Day
14h 05m
Full, 100% of the Moon is Illuminated
Aug 10
Full
Aug 10
Full
Aug 17
Last Quarter
Aug 25
New
Sep 2
First Quarter

Hourly Weather History & Observations

Time (EDT) Temp. Heat Index Dew Point Humidity Pressure Visibility Wind Dir Wind Speed Gust Speed Precip Events Conditions
12:53 AM 63.0 °F - 55.0 °F 75% 30.10 in 10.0 mi NE 5.8 mph - N/A   Clear
1:53 AM 62.1 °F - 55.0 °F 78% 30.10 in 10.0 mi NE 4.6 mph - N/A   Clear
2:53 AM 61.0 °F - 55.0 °F 81% 30.09 in 10.0 mi NE 4.6 mph - N/A   Clear
3:53 AM 60.1 °F - 55.0 °F 83% 30.09 in 10.0 mi NE 5.8 mph - N/A   Clear
4:53 AM 60.1 °F - 55.0 °F 83% 30.09 in 10.0 mi ENE 4.6 mph - N/A   Clear
5:53 AM 61.0 °F - 55.9 °F 83% 30.08 in 10.0 mi ENE 4.6 mph - N/A   Clear
6:53 AM 60.1 °F - 55.9 °F 86% 30.09 in 10.0 mi NE 3.5 mph - N/A   Clear
7:53 AM 60.1 °F - 55.9 °F 86% 30.09 in 10.0 mi NNE 3.5 mph - N/A   Clear
8:53 AM 66.9 °F - 61.0 °F 81% 30.10 in 10.0 mi Variable 3.5 mph - N/A   Clear
10:53 AM 77.0 °F - 63.0 °F 62% 30.09 in 10.0 mi East 6.9 mph - N/A   Clear
11:53 AM 80.1 °F 81.5 °F 63.0 °F 56% 30.08 in 10.0 mi East 6.9 mph - N/A   Clear
12:53 PM 82.0 °F 83.1 °F 63.0 °F 52% 30.07 in 10.0 mi ENE 8.1 mph - N/A   Partly Cloudy
1:53 PM 84.0 °F 84.5 °F 62.1 °F 47% 30.06 in 10.0 mi SSE 4.6 mph - N/A   Mostly Cloudy
2:53 PM 84.9 °F 83.9 °F 57.0 °F 38% 30.05 in 10.0 mi ESE 6.9 mph - N/A   Clear
4:53 PM 84.0 °F 84.0 °F 60.1 °F 44% 30.03 in 10.0 mi SE 6.9 mph - N/A   Partly Cloudy
5:53 PM 82.0 °F 83.0 °F 62.1 °F 51% 30.01 in 10.0 mi East 6.9 mph - N/A   Partly Cloudy
6:53 PM 82.0 °F 83.0 °F 62.1 °F 51% 30.00 in 10.0 mi ESE 8.1 mph - N/A   Clear
8:53 PM 73.9 °F - 62.1 °F 66% 29.99 in 10.0 mi ESE 4.6 mph - N/A   Clear
9:53 PM 71.1 °F - 64.9 °F 81% 30.01 in 10.0 mi East 3.5 mph - N/A   Clear
10:53 PM 71.1 °F - 63.0 °F 75% 30.00 in 10.0 mi East 5.8 mph - N/A   Clear